Regional Weather Roundup
Issued by NWS

Home | Current Version | Previous Version | Text Only | Print | Product List | Glossary Off
Versions: 1 2 3 4 5 6 7 8 9 10 11 12 13 14 15 16 17 18 19 20 21 22 23 24 25 26 27 28 29 30 31 32 33 34 35 36 37 38 39 40 41 42 43 44 45 46 47 48 49 50

000
ASUS43 KLOT 222200
RWRIL

ILLINOIS REGIONAL WEATHER ROUNDUP
NATIONAL WEATHER SERVICE CHICAGO/ROMEOVILLE IL
500 PM CDT FRI MAY 22 2015

NOTE: "FAIR" INDICATES FEW OR NO CLOUDS BELOW 12,000 FEET WITH NO
SIGNIFICANT WEATHER AND/OR OBSTRUCTIONS TO VISIBILITY.

* THESE STATIONS ARE NOT UNDER NWS QUALITY CONTROL. THEY ALSO MAY NOT
  REPORT WEATHER SUCH AS PRECIPITATION OR FOG.

ILZ001-002-007-009-015-016-024-222300-
NORTHWEST ILLINOIS

CITY           SKY/WX    TMP DP  RH WIND       PRES   REMARKS
MOLINE         CLOUDY    77  37  23 NW6       30.18F
STERLING*      CLOUDY    73  45  35 E7        30.20S
$$

ILZ003-004-008-010-011-017-018-222300-
NORTH CENTRAL ILLINOIS

CITY           SKY/WX    TMP DP  RH WIND       PRES   REMARKS
ROCKFORD       CLOUDY    73  39  29 N5        30.22F
$$

ILZ005-006-012>014-019>023-222300-
NORTHEAST ILLINOIS

CITY           SKY/WX    TMP DP  RH WIND       PRES   REMARKS
CHICAGO-OHARE  PTSUNNY   62  25  24 E10       30.24S
CHICAGO-MIDWAY PTSUNNY   63  24  22 E16       30.26R
AURORA         PTSUNNY   73  35  25 NE5       30.22S
WAUKEGAN       SUNNY     54  27  35 E9        30.26F
DUPAGE AIRPORT PTSUNNY   68  34  28 E13       30.22S
WHEELING       MOSUNNY   59  23  25 NE10      30.27F
NORTHERLY ISL    N/A     51  36  56 N10         N/A
$$

LMZ740>746-222300-
SOUTHERN LAKE MICHIGAN

STATION/POSITION SKY/WX   TEMP    WIND        PRES    VSBY  WAVE
                          AIR SEA DIR/SP/G                  HT/PER
                          (F)     (DEG/KT/KT) (MB)    (MI)  (FT/S)
SOUTHERN BUOY              41 38   40/  6/  8 1026.3F         0
HARRISON CRIB              48      10/ 10/ 11   N/A
BURNHAM HARBOR             53      30/ 10       N/A
CALUMET HARBOR             51      10/  6/  9   N/A
BURNS HARBOR               52      50/ 13/ 14 1025.1F
MICHIGAN CITY              52      20/ 12/ 13   N/A
MICHIGAN CITY 6N           50 51   60/  8/ 12   N/A           2/ 3
ST. JOSEPH                 52 53   50/ 14/ 16   N/A           2/ 3
$$

ILZ025>027-034>036-040-047-049-050-058-095>099-222300-
WEST-CENTRAL ILLINOIS

CITY           SKY/WX    TMP DP  RH WIND       PRES   REMARKS
QUINCY         CLOUDY    73  43  33 W6        30.21S
$$

ILZ028>032-037-038-041>044-048-051>054-059>061-222300-
CENTRAL ILLINOIS

CITY           SKY/WX    TMP DP  RH WIND       PRES   REMARKS
DECATUR        CLOUDY    76  42  29 W8        30.20F
PEORIA         PTSUNNY   79  38  22 W6        30.19F
SPRINGFIELD    CLOUDY    80  40  23 NW7       30.21S
TAYLORVILLE    NOT AVBL
$$

ILZ033-039-045-046-055>057-062-063-222300-
EAST-CENTRAL ILLINOIS

CITY           SKY/WX    TMP DP  RH WIND       PRES   REMARKS
CHAMPAIGN      CLOUDY    77  38  24 W13       30.20S
MATTOON        CLOUDY    73  43  33 W6        30.20F
$$

ILZ079-100>102-222300-
SOUTHWEST ILLINOIS

CITY           SKY/WX    TMP DP  RH WIND       PRES   REMARKS
ALTON          CLOUDY    73  43  33 W6        30.22F
BELLEVILLE     CLOUDY    74  51  44 W3        30.21F
CAHOKIA*       CLOUDY    75  48  38 W7        30.23S
$$

ILZ064>066-069>071-074>076-080>082-084>086-088>090-092>094-222300-
SOUTH-CENTRAL ILLINOIS

CITY           SKY/WX    TMP DP  RH WIND       PRES   REMARKS
CARBONDALE     PTSUNNY   71  52  50 SW8       30.25S
MARION         MOSUNNY   72  54  53 SW12      30.26S
MT. VERNON     CLOUDY    73  46  38 W7        30.25R
$$

ILZ067-068-072-073-078-083-087-091-222300-
SOUTHEAST ILLINOIS

CITY           SKY/WX    TMP DP  RH WIND       PRES   REMARKS
LAWRENCEVILLE  CLOUDY    74  46  36 W8        30.23F
$$

ABBREVIATIONS USED IN REMARKS
   TC - TEMPERATURE IN CELSIUS
  WCI - WIND CHILL INDEX
   HX - HEAT INDEX
  VSB - VISIBILITY
$$




USA.gov is the U.S. government's official web portal to all federal, state and local government web resources and services.